This is the latest recevied weather packets stored in our database for station/object KB3VSP. If no packets are shown the sender has not sent any weather packets the latest 1 day(s).
| Time | Temp. | Humidity | Pressure | Rain* | Wind** | Luminosity | Snow |
|---|---|---|---|---|---|---|---|
| 1778095470 | 11.67° C | 77% | 1011.4 hPa | 0 mm | - | 57 W/m² | - |
| 1778094863 | 11.67° C | 79% | 1011.6 hPa | 0 mm | - | 131 W/m² | - |
| 1778093348 | 11.11° C | 78% | 1011.6 hPa | 0 mm | - | 81 W/m² | - |
| 1778092742 | 11.67° C | 82% | 1011.3 hPa | 0 mm | - | 61 W/m² | - |
| 1778090316 | 11.11° C | 89% | 1011 hPa | 0 mm | - | 87 W/m² | - |
| 1778089710 | 10.56° C | 89% | 1011.3 hPa | 0 mm | - | 37 W/m² | - |
| 1778089105 | 11.11° C | 89% | 1010.7 hPa | 0 mm | - | 36 W/m² | - |
| 1778088195 | 11.67° C | 89% | 1010.8 hPa | 0 mm | - | 102 W/m² | - |
| 1778086076 | 10.56° C | 91% | 1010.8 hPa | 0 mm | - | 106 W/m² | - |
| 1778083953 | 9.44° C | 97% | 1010.5 hPa | 0 mm | - | 275 W/m² | - |
| 1778082742 | 9.44° C | 99% | 1010.4 hPa | 0 mm | - | 52 W/m² | - |
| 1778081004 | 8.89° C | 99% | 1009.8 hPa | 0 mm | - | 83 W/m² | - |
| 1778078580 | 8.89° C | 99% | 1009.2 hPa | 0 mm | - | 56 W/m² | - |
| 1778078278 | 9.44° C | 99% | 1009.2 hPa | 0 mm | - | 149 W/m² | - |
| 1778074341 | 8.33° C | 99% | 1008.5 hPa | 1.27 mm | - | 70 W/m² | - |
| 1778074038 | 8.33° C | 99% | 1008.7 hPa | 1.78 mm | - | 53 W/m² | - |
| 1778073735 | 8.33° C | 99% | 1008.8 hPa | 1.78 mm | - | 34 W/m² | - |
| 1778072826 | 8.33° C | 99% | 1008.9 hPa | 0 mm | - | 11 W/m² | - |
| 1778071616 | 8.33° C | 99% | 1007.8 hPa | 0 mm | - | 15 W/m² | - |
| 1778069196 | 8.89° C | 99% | 1008 hPa | 1.78 mm | - | 7 W/m² | - |
| 1778067986 | 8.89° C | 99% | 1007.6 hPa | 0 mm | - | 4 W/m² | - |
| 1778067684 | 8.89° C | 99% | 1007.8 hPa | 0 mm | - | 4 W/m² | - |
| 1778067382 | 8.89° C | 99% | 1007.7 hPa | 0 mm | - | 5 W/m² | - |
| 1778067079 | 8.89° C | 99% | 1007.4 hPa | 0 mm | - | 3 W/m² | - |
| 1778066775 | 8.89° C | 99% | 1006.9 hPa | 0 mm | - | 3 W/m² | - |
* Rain latest hour (hover to see other rain measurements)
** Current wind speed in m/s (hover to see current wind gust speed)